Simultaneous Nadir Overpasses (SNOs) Predictions

Prediction of SNOs between AQUA and METOP-A Satellite Orbit:

Table of predicted SNOs for the next 14.0 days since TLE Epoch: 8/25/2018
Index Date (AQUA) Time (AQUA) Lat,Lon (AQUA) SZA (AQUA ) Date (METOP-A) Time (METOP-A) Lat,Lon (METOP-A) SZA (METOP-A ) Distance(km) Time Diff (sec)
1 08/27/2018 16:52:05 74.49, -80.17 64.64 08/27/2018 16:51:02 74.49, -80.16 64.66 0.84 63
2 08/27/2018 17:41:32 -74.57, 87.26 115.26 08/27/2018 17:41:43 -74.54, 87.30 115.29 3.27 11
3 08/27/2018 18:31:06 74.89,-105.91 65.11 08/27/2018 18:32:15 74.90,-104.40 65.05 43.71 69
4 08/30/2018 12:26:17 74.51, -13.78 65.66 08/30/2018 12:25:17 74.51, -13.71 65.66 2.04 60
5 08/30/2018 13:15:43 -74.54, 153.78 114.30 08/30/2018 13:15:58 -74.56, 153.76 114.28 2.14 15
6 08/30/2018 14:05:20 75.02, -39.78 66.23 08/30/2018 14:06:28 75.01, -37.68 66.15 60.52 68
7 09/02/2018 08:00:29 74.48, 52.73 66.64 09/02/2018 07:59:34 74.47, 52.61 66.64 3.75 55
8 09/02/2018 08:49:56 -74.57,-139.84 113.26 09/02/2018 08:50:14 -74.58,-139.79 113.25 1.63 18
9 09/02/2018 09:39:35 75.14, 26.33 67.38 09/02/2018 09:40:41 75.17, 29.18 67.31 81.36 66
10 09/05/2018 03:34:42 74.51, 119.10 67.70 09/05/2018 03:33:49 74.53, 119.17 67.72 3.17 53
11 09/05/2018 04:24:09 -74.60, -73.47 112.20 09/05/2018 04:24:30 -74.59, -73.35 112.22 3.64 21
12 09/07/2018 23:08:53 74.50,-174.42 68.72 09/07/2018 23:08:05 74.50,-174.52 68.73 3.06 48
13 09/07/2018 23:58:20 -74.58, -6.98 111.18 09/07/2018 23:58:45 -74.60, -6.91 111.16 2.91 25




NCC Satellite Simultaneous Nadir Overpasses (SNOs) Prediction Service
